GW7109 Weather Reports


Display with metric or nautical units.
time (UTC)temp
F
wind
direction
speed
MPH
gust
MPH
rain 1hr
in
rain 24hr
in
rain mn
in
humidity
%
barometer
mb
20260504202024 80 211 9.0 14.0 0.00 0.00 0.00 41 1015.4
20260504201029 79 244 8.0 12.0 0.00 0.00 0.00 41 1015.6
20260504200023 80 233 8.0 13.0 0.00 0.00 0.00 40 1015.7
20260504195049 80 221 7.0 12.0 0.00 0.00 0.00 41 1015.9
20260504194126 80 236 6.0 12.0 0.00 0.00 0.00 44 1015.9
20260504193153 79 222 7.0 10.0 0.00 0.00 0.00 44 1016.1
20260504192025 80 234 9.0 12.0 0.00 0.00 0.00 43 1016.2
20260504191122 80 229 8.0 11.0 0.00 0.00 0.00 43 1016.3
20260504190036 80 187 7.0 10.0 0.00 0.00 0.00 44 1016.3
20260504185044 80 239 7.0 11.0 0.00 0.00 0.00 44 1016.5
20260504184058 79 132 11.0 20.0 0.00 0.00 0.00 45 1016.6
20260504183022 79 217 7.0 10.0 0.00 0.00 0.00 46 1016.7
20260504182048 78 223 7.0 10.0 0.00 0.00 0.00 46 1016.9
20260504181023 78 253 8.0 14.0 0.00 0.00 0.00 46 1017.1
20260504180028 79 226 10.0 13.0 0.00 0.00 0.00 44 1017.2
20260504175045 78 234 6.0 10.0 0.00 0.00 0.00 47 1017.3
20260504174030 78 229 7.0 14.0 0.00 0.00 0.00 45 1017.4
20260504173025 77 250 7.0 12.0 0.00 0.00 0.00 46 1017.6
20260504172020 78 230 8.0 13.0 0.00 0.00 0.00 46 1017.7
20260504171025 78 268 7.0 12.0 0.00 0.00 0.00 47 1017.8
20260504151022 71 232 9.0 13.0 0.00 0.00 0.00 57 1019.2
20260504141022 66 217 6.0 10.0 0.00 0.00 0.00 65 1019.7
20260504081026 51 0.0 0.0 0.00 0.00 0.00 79 1019.0
20260504045044 53 180 1.0 2.0 0.00 0.00 0.00 77 1020.3
20260504044029 53 192 2.0 3.0 0.00 0.00 0.00 77 1020.3
20260504043024 54 193 2.0 3.0 0.00 0.00 0.00 76 1020.4
20260504042020 54 200 2.0 3.0 0.00 0.00 0.00 75 1020.4
20260504041025 53 215 1.0 2.0 0.00 0.00 0.00 77 1020.4
20260504040020 54 178 0.0 2.0 0.00 0.00 0.00 76 1020.3
20260504035026 54 185 1.0 3.0 0.00 0.00 0.00 76 1020.4
20260504034022 54 152 2.0 3.0 0.00 0.00 0.00 76 1020.5
20260504033027 54 180 1.0 3.0 0.00 0.00 0.00 78 1020.4
20260504032022 54 194 1.0 3.0 0.00 0.00 0.00 77 1020.5
20260504031028 54 168 4.0 4.0 0.00 0.00 0.00 76 1020.6
20260504030022 54 163 3.0 3.0 0.00 0.00 0.00 78 1020.7
20260504025028 54 0.0 0.0 0.00 0.00 0.00 81 1020.7
20260504024024 54 148 0.0 2.0 0.00 0.00 0.00 77 1020.7
20260504023049 54 149 1.0 3.0 0.00 0.00 0.00 78 1020.8
20260504022024 55 0.0 0.0 0.00 0.00 0.00 75 1020.7
20260504021022 56 0.0 0.0 0.00 0.00 0.00 75 1020.5
20260504020025 57 0.0 0.0 0.00 0.00 0.00 71 1020.4
20260504015024 57 0.0 0.0 0.00 0.00 0.00 68 1020.2
20260504014025 58 0.0 0.0 0.00 0.00 0.00 66 1020.1
20260504013021 58 0.0 0.0 0.00 0.00 0.00 66 1020.0
20260504012026 59 0.0 0.0 0.00 0.00 0.00 63 1019.8
20260504011022 60 0.0 0.0 0.00 0.00 0.00 62 1019.7
20260504010028 61 137 0.0 1.0 0.00 0.00 0.00 60 1019.6
20260504005022 63 186 0.0 2.0 0.00 0.00 0.00 58 1019.5
20260504004029 64 211 2.0 4.0 0.00 0.00 0.00 52 1019.4
20260504003023 65 222 3.0 5.0 0.00 0.00 0.00 48 1019.5
20260504002028 67 215 2.0 2.0 0.00 0.00 0.00 45 1019.6
20260504001045 69 229 2.0 3.0 0.00 0.00 0.00 42 1019.6
20260504000020 70 229 3.0 4.0 0.00 0.00 0.00 40 1019.7
20260503235147 71 3.0 4.0 0.00 0.00 0.00 38 1019.8
20260503234020 71 268 3.0 5.0 0.00 0.00 0.00 38 1019.8
20260503233026 71 308 3.0 4.0 0.00 0.00 0.00 38 1019.9
20260503232133 71 235 5.0 7.0 0.00 0.00 0.00 37 1020.0
20260503231026 72 276 4.0 6.0 0.00 0.00 0.00 36 1020.1
20260503230032 72 271 4.0 6.0 0.00 0.00 0.00 36 1020.1
20260503225108 71 300 6.0 8.0 0.00 0.00 0.00 36 1020.1
20260503224134 72 304 4.0 6.0 0.00 0.00 0.00 35 1020.1
20260503223038 73 299 4.0 9.0 0.00 0.00 0.00 34 1020.3
20260503222119 72 301 3.0 7.0 0.00 0.00 0.00 35 1020.3
20260503221049 72 318 5.0 7.0 0.00 0.00 0.00 35 1020.4
20260503220115 72 278 6.0 9.0 0.00 0.00 0.00 34 1020.5
20260503215020 72 308 5.0 8.0 0.00 0.00 0.00 35 1020.6
20260503214035 72 320 4.0 6.0 0.00 0.00 0.00 35 1020.8
20260503213101 72 287 6.0 11.0 0.00 0.00 0.00 35 1020.8
20260503212056 72 281 6.0 8.0 0.00 0.00 0.00 34 1021.0
20260503211021 72 240 5.0 8.0 0.00 0.00 0.00 35 1021.2
20260503210027 71 261 6.0 10.0 0.00 0.00 0.00 34 1021.3
20260503205021 73 287 5.0 10.0 0.00 0.00 0.00 34 1021.4
20260503204108 71 314 4.0 8.0 0.00 0.00 0.00 35 1021.6
20260503203022 71 230 8.0 12.0 0.00 0.00 0.00 35 1021.7